Location: Bern�tre
(50.1974°N, 2.0915°E)
Time: 04:51:03
(UTC+00:00)

Cosmos 1125 Rocket - Pass Details

Date: 18 September 2020
Orbit: 758 x 779 km, 74.0° (Epoch: 29 October)

Event Time Altitude Azimuth Distance (km) Brightness Sun altitude
Rises 20:38:39 0° 208° (SSW) 3,247 6.7 -24.8°
Reaches altitude 10° 20:41:02 10° 211° (SSW) 2,325 5.9 -25.1°
Maximum altitude 20:46:19 72° 296° (WNW) 823 3.7 -25.8°
Drops below altitude 10° 20:51:39 10° 21° (NNE) 2,344 6.2 -26.4°
Sets 20:54:04 0° 24° (NNE) 3,276 7.0 -26.7°
